Marfa, TX

3:43 PM CDT on August 27, 2016 (GMT -0500)
Marfa Municipal

Weather History for KMRF - February, 2012

Change the Weather History Date:

Tuesday, February 7, 2012

  Actual Average Record
Temperature  
Mean Temperature 43 °F -  
Max Temperature 60 °F 57 °F 73 °F (2009)
Min Temperature 26 °F 27 °F 10 °F (2006)
Degree Days  
Heating Degree Days 22    
Moisture  
Dew Point 24 °F    
Average Humidity 52    
Maximum Humidity 75    
Minimum Humidity 29    
Precipitation  
Precipitation 0.00 in - - ()
Sea Level Pressure  
Sea Level Pressure 30.16 in    
Wind  
Wind Speed 10 mph (NNE)    
Max Wind Speed 26 mph    
Max Gust Speed 30 mph    
Visibility 10 miles    
Events      
Averages and records for this station are not official NWS values.
T = Trace of Precipitation, MM = Missing Value Source: NWS Daily Summary

Daily Weather History Graph

Daily Weather History Graph

Search for Another Location

Airport or City:

Trip Planner

Search our weather history database for the weather conditions in past years. The results will help you decide how hot, cold, wet, or windy it might be!

Date:

Astronomy

Feb. 07, 2012 Rise Set
Actual Time 7:43 AM CST 6:37 PM CST
Civil Twilight 7:18 AM CST 7:02 PM CST
Nautical Twilight 6:49 AM CST 7:30 PM CST
Astronomical Twilight 6:21 AM CST 7:59 PM CST
Moon 6:46 PM CST (2/7) 7:16 AM CST (2/7)
Length of Visible Light 11h 44m
Length of Day
10h 54m
Full, 100% of the Moon is Illuminated
Feb 7
Full
Feb 7
Full
Feb 14
Last Quarter
Feb 21
New
Feb 29
First Quarter

Hourly Weather History & Observations

Time (CST) Temp. Windchill Dew Point Humidity Pressure Visibility Wind Dir Wind Speed Gust Speed Precip Events Conditions
12:15 AM 33.8 °F 27.0 °F 19.4 °F 56% 30.11 in 10.0 mi NNW 8.1 mph - N/A   Clear
12:35 AM 33.8 °F 28.6 °F 19.4 °F 56% 30.11 in 10.0 mi NNW 5.8 mph - N/A   Clear
12:55 AM 33.8 °F 28.6 °F 19.4 °F 56% 30.11 in 10.0 mi North 5.8 mph - N/A   Clear
1:15 AM 28.4 °F 20.4 °F 17.6 °F 64% 30.11 in 10.0 mi NNW 8.1 mph - N/A   Clear
1:35 AM 30.2 °F 22.6 °F 19.4 °F 64% 30.11 in 10.0 mi NNW 8.1 mph - N/A   Clear
1:55 AM 28.4 °F - 17.6 °F 64% 30.11 in 10.0 mi Calm Calm - N/A   Clear
2:15 AM 26.6 °F 20.0 °F 17.6 °F 69% 30.11 in 10.0 mi North 5.8 mph - N/A   Clear
2:35 AM 26.6 °F 22.6 °F 17.6 °F 69% 30.11 in 10.0 mi North 3.5 mph - N/A   Clear
2:55 AM 28.4 °F 24.6 °F 19.4 °F 69% 30.11 in 10.0 mi North 3.5 mph - N/A   Clear
3:15 AM 30.2 °F 24.3 °F 19.4 °F 64% 30.11 in 10.0 mi North 5.8 mph - N/A   Clear
3:35 AM 30.2 °F 22.6 °F 19.4 °F 64% 30.11 in 10.0 mi NNE 8.1 mph - N/A   Clear
3:55 AM 30.2 °F 23.4 °F 21.2 °F 69% 30.10 in 10.0 mi NNE 6.9 mph - N/A   Clear
4:15 AM 30.2 °F 22.6 °F 21.2 °F 69% 30.10 in 10.0 mi NNE 8.1 mph - N/A   Clear
4:35 AM 28.4 °F 21.2 °F 19.4 °F 69% 30.10 in 10.0 mi NNE 6.9 mph - N/A   Clear
4:55 AM 28.4 °F 21.2 °F 17.6 °F 64% 30.10 in 10.0 mi NNE 6.9 mph - N/A   Clear
5:15 AM 26.6 °F 19.1 °F 17.6 °F 69% 30.11 in 10.0 mi North 6.9 mph - N/A   Clear
5:35 AM 28.4 °F 20.4 °F 19.4 °F 69% 30.11 in 10.0 mi North 8.1 mph - N/A   Clear
5:55 AM 28.4 °F 20.4 °F 19.4 °F 69% 30.12 in 10.0 mi North 8.1 mph - N/A   Clear
6:15 AM 28.4 °F 20.4 °F 21.2 °F 74% 30.12 in 10.0 mi North 8.1 mph - N/A   Clear
6:35 AM 30.2 °F 21.9 °F 21.2 °F 69% 30.12 in 10.0 mi North 9.2 mph - N/A   Clear
6:55 AM 28.4 °F 19.7 °F 19.4 °F 69% 30.12 in 10.0 mi North 9.2 mph - N/A   Clear
7:15 AM 28.4 °F 21.2 °F 21.2 °F 74% 30.13 in 10.0 mi North 6.9 mph - N/A   Clear
7:35 AM 26.6 °F 19.1 °F 19.4 °F 74% 30.14 in 10.0 mi North 6.9 mph - N/A   Clear
7:55 AM 26.6 °F 18.2 °F 19.4 °F 74% 30.14 in 10.0 mi NNE 8.1 mph - N/A   Clear
8:15 AM 28.4 °F 22.2 °F 21.2 °F 74% 30.15 in 9.0 mi NE 5.8 mph - N/A   Clear
8:35 AM 32.0 °F - 24.8 °F 75% 30.15 in 10.0 mi Calm Calm - N/A   Clear
8:55 AM 37.4 °F 34.9 °F 24.8 °F 60% 30.15 in 10.0 mi NW 3.5 mph - N/A   Clear
9:15 AM 42.8 °F 41.1 °F 26.6 °F 53% 30.16 in 10.0 mi NNW 3.5 mph - N/A   Clear
9:35 AM 46.4 °F - 28.4 °F 50% 30.17 in 10.0 mi Calm Calm - N/A   Clear
9:55 AM 48.2 °F - 30.2 °F 50% 30.17 in 10.0 mi South 3.5 mph - N/A   Clear
10:15 AM 51.8 °F - 30.2 °F 44% 30.18 in 10.0 mi SSW 4.6 mph - N/A   Clear
10:35 AM 53.6 °F - 30.2 °F 41% 30.18 in 10.0 mi South 4.6 mph - N/A   Clear
10:55 AM 53.6 °F - 30.2 °F 41% 30.19 in 10.0 mi SW 3.5 mph - N/A   Clear
11:15 AM 55.4 °F - 30.2 °F 38% 30.19 in 10.0 mi ENE 3.5 mph - N/A   Clear
11:35 AM 57.2 °F - 28.4 °F 33% 30.19 in 10.0 mi NNE 6.9 mph - N/A   Clear
11:55 AM 60.8 °F - 28.4 °F 29% 30.19 in 10.0 mi NE 15.0 mph 18.4 mph N/A   Clear
12:15 PM 57.2 °F - 28.4 °F 33% 30.19 in 10.0 mi NNE 19.6 mph 23.0 mph N/A   Clear
12:35 PM 57.2 °F - 28.4 °F 33% 30.19 in 10.0 mi NE 21.9 mph - N/A   Clear
12:55 PM 57.2 °F - 26.6 °F 31% 30.19 in 10.0 mi NE 21.9 mph 26.5 mph N/A   Clear
1:15 PM 55.4 °F - 26.6 °F 33% 30.18 in 10.0 mi NE 21.9 mph - N/A   Clear
1:35 PM 55.4 °F - 26.6 °F 33% 30.19 in 10.0 mi NE 19.6 mph 26.5 mph N/A   Clear
1:55 PM 55.4 °F - 26.6 °F 33% 30.18 in 10.0 mi NE 20.7 mph 25.3 mph N/A   Clear
2:15 PM 55.4 °F - 26.6 °F 33% 30.18 in 10.0 mi NNE 18.4 mph - N/A   Clear
2:35 PM 53.6 °F - 26.6 °F 35% 30.18 in 10.0 mi NNE 23.0 mph - N/A   Clear
2:55 PM 53.6 °F - 26.6 °F 35% 30.18 in 10.0 mi NNE 25.3 mph - N/A   Clear
3:15 PM 53.6 °F - 26.6 °F 35% 30.18 in 10.0 mi NNE 24.2 mph 27.6 mph N/A   Clear
3:35 PM 53.6 °F - 26.6 °F 35% 30.18 in 10.0 mi NNE 26.5 mph - N/A   Clear
3:55 PM 51.8 °F - 26.6 °F 38% 30.18 in 10.0 mi NNE 25.3 mph 29.9 mph N/A   Clear
4:15 PM 51.8 °F - 26.6 °F 38% 30.19 in 10.0 mi NNE 25.3 mph - N/A   Clear
4:35 PM 50.0 °F - 26.6 °F 40% 30.20 in 10.0 mi NNE 24.2 mph 29.9 mph N/A   Clear
4:55 PM 50.0 °F - 26.6 °F 40% 30.21 in 10.0 mi NNE 23.0 mph - N/A   Clear
5:15 PM 48.2 °F - 26.6 °F 43% 30.22 in 10.0 mi NNE 20.7 mph 27.6 mph N/A   Clear
5:35 PM 48.2 °F - 26.6 °F 43% 30.22 in 10.0 mi NNE 23.0 mph 27.6 mph N/A   Clear
5:55 PM 46.4 °F 38.1 °F 26.6 °F 46% 30.23 in 10.0 mi NNE 24.2 mph - N/A   Clear
6:15 PM 44.6 °F 35.9 °F 26.6 °F 49% 30.23 in 10.0 mi NNE 23.0 mph 26.5 mph N/A   Clear
6:35 PM 44.6 °F 36.4 °F 26.6 °F 49% 30.24 in 10.0 mi NNE 20.7 mph 27.6 mph N/A   Clear
6:55 PM 42.8 °F 34.3 °F 26.6 °F 53% 30.25 in 10.0 mi NNE 19.6 mph 25.3 mph N/A   Clear
7:15 PM 42.8 °F 34.5 °F 26.6 °F 53% 30.26 in 10.0 mi NNE 18.4 mph - N/A   Clear
7:35 PM 42.8 °F 34.8 °F 26.6 °F 53% 30.27 in 10.0 mi NNE 17.3 mph - N/A   Clear
7:55 PM 42.8 °F 34.8 °F 26.6 °F 53% 30.28 in 10.0 mi NE 17.3 mph - N/A   Clear
8:15 PM 41.0 °F 32.8 °F 26.6 °F 57% 30.29 in 10.0 mi NNE 16.1 mph 24.2 mph N/A   Clear
8:35 PM 41.0 °F 32.8 °F 26.6 °F 57% 30.29 in 10.0 mi NNE 16.1 mph 23.0 mph N/A   Clear
8:55 PM 41.0 °F 33.1 °F 26.6 °F 57% 30.29 in 10.0 mi NNE 15.0 mph - N/A   Clear
9:15 PM 39.2 °F 30.8 °F 26.6 °F 61% 30.30 in 10.0 mi NNE 15.0 mph - N/A   Clear
9:35 PM 39.2 °F 30.2 °F 26.6 °F 61% 30.30 in 10.0 mi NNE 17.3 mph 20.7 mph N/A   Clear
9:55 PM 39.2 °F 30.5 °F 26.6 °F 61% 30.31 in 10.0 mi NE 16.1 mph 20.7 mph N/A   Clear
10:15 PM 39.2 °F 29.8 °F 28.4 °F 65% 30.30 in 10.0 mi NE 18.4 mph - N/A   Clear
10:35 PM 39.2 °F 30.2 °F 28.4 °F 65% 30.30 in 10.0 mi NE 17.3 mph 23.0 mph N/A   Clear
10:55 PM 39.2 °F 30.5 °F 28.4 °F 65% 30.32 in 10.0 mi NE 16.1 mph - N/A   Clear
11:15 PM 39.2 °F 30.5 °F 28.4 °F 65% 30.33 in 10.0 mi NNE 16.1 mph 24.2 mph N/A   Clear
11:35 PM 37.4 °F 29.3 °F 28.4 °F 70% 30.33 in 10.0 mi NE 12.7 mph 19.6 mph N/A   Clear
11:55 PM 37.4 °F 28.2 °F 28.4 °F 70% 30.33 in 10.0 mi NE 16.1 mph 20.7 mph N/A   Clear